RYR310N LPPR-EDLV

Flight info

Callsign RYR310N
Flight time N/A
Altitude 35000
Route TURON9L TURON P600 ASDEB DCT LOTEE DCT AZFIC UN741 MOKOR UN873 OBATO UM163 TSU UN858 OQQAL DCT RANUX DCT VALEK DCT LUTAX UM163 DIK N853 ARCKY T853 IBESA T474 LAA DCT
Aircraft B38M/M-SDE1FGHILORVWXY/HB1

Departure

Time N/A
Airport Francisco de Sá Carneiro Airport (LPPR)

Arrival

Time 2026-05-09 17:15
Airport Weeze (Niederrhein) Airport (EDLV)
Time Latitude Longitude Altitude Speed Heading
2026-05-09 16:38 49.03062 2.81188 34968 ft 469 kts 39°
2026-05-09 16:39 49.07950 2.87813 34973 ft 474 kts 39°
2026-05-09 16:39 49.12903 2.94564 34980 ft 478 kts 39°
2026-05-09 16:40 49.17890 3.01369 34982 ft 477 kts 39°
2026-05-09 16:42 49.37512 3.28335 34982 ft 471 kts 39°
2026-05-09 16:42 49.42374 3.35064 34986 ft 471 kts 39°
2026-05-09 16:43 49.47240 3.41816 34985 ft 471 kts 39°
2026-05-09 16:43 49.52093 3.48570 34984 ft 469 kts 39°
2026-05-09 16:44 49.56901 3.55280 34982 ft 469 kts 39°
2026-05-09 16:44 49.61722 3.62028 34980 ft 467 kts 39°
2026-05-09 16:45 49.66525 3.68767 34990 ft 466 kts 40°
2026-05-09 16:45 49.71314 3.75506 35002 ft 464 kts 40°
2026-05-09 16:46 49.76073 3.82223 34992 ft 464 kts 40°
2026-05-09 16:46 49.80825 3.88947 34991 ft 464 kts 40°
2026-05-09 16:47 49.85580 3.95695 34993 ft 464 kts 40°
2026-05-09 16:47 49.90333 4.02457 35008 ft 463 kts 40°
2026-05-09 16:48 49.95063 4.09207 34995 ft 462 kts 40°
2026-05-09 16:48 49.99788 4.15968 35004 ft 462 kts 40°
2026-05-09 16:49 50.04500 4.22730 35004 ft 462 kts 40°
2026-05-09 16:50 50.11598 4.32954 33811 ft 469 kts 40°
2026-05-09 16:50 50.13976 4.36395 32786 ft 477 kts 39°
2026-05-09 16:50 50.16409 4.39917 32008 ft 479 kts 39°
2026-05-09 16:50 50.18853 4.43456 31399 ft 476 kts 39°
2026-05-09 16:51 50.21275 4.46968 30772 ft 476 kts 38°
2026-05-09 16:51 50.23699 4.50489 30133 ft 475 kts 38°
2026-05-09 16:51 50.26119 4.54012 29450 ft 474 kts 38°
2026-05-09 16:51 50.28525 4.57519 28875 ft 470 kts 39°
2026-05-09 16:52 50.30909 4.60997 28302 ft 466 kts 39°
2026-05-09 16:52 50.33258 4.64430 27784 ft 462 kts 39°
2026-05-09 16:52 50.35593 4.67845 27208 ft 458 kts 40°
2026-05-09 16:52 50.37924 4.71260 26457 ft 460 kts 40°
2026-05-09 16:53 50.40259 4.74689 25841 ft 458 kts 41°
2026-05-09 16:53 50.42573 4.78090 25355 ft 453 kts 41°
2026-05-09 16:53 50.44862 4.81455 24835 ft 449 kts 41°
2026-05-09 16:53 50.47131 4.84798 24321 ft 446 kts 42°
2026-05-09 16:54 50.49386 4.88124 23799 ft 442 kts 42°
2026-05-09 16:54 50.51611 4.91412 23250 ft 439 kts 43°
2026-05-09 16:54 50.53827 4.94689 22708 ft 435 kts 43°
2026-05-09 16:54 50.56012 4.97923 22231 ft 429 kts 42°
2026-05-09 16:55 50.58173 5.01129 21751 ft 425 kts 42°
2026-05-09 16:55 50.60309 5.04301 21282 ft 420 kts 42°
2026-05-09 16:55 50.62424 5.07445 20823 ft 416 kts 42°
2026-05-09 16:55 50.64494 5.10527 20388 ft 412 kts 43°
2026-05-09 16:56 50.66564 5.13612 19928 ft 408 kts 42°
2026-05-09 16:56 50.68607 5.16661 19490 ft 404 kts 43°
2026-05-09 16:56 50.70640 5.19699 19077 ft 401 kts 43°
2026-05-09 16:56 50.72652 5.22710 18653 ft 398 kts 43°
2026-05-09 16:57 50.74654 5.25710 18208 ft 395 kts 43°
2026-05-09 16:57 50.76637 5.28684 17763 ft 392 kts 43°
2026-05-09 16:57 50.78601 5.31634 17332 ft 388 kts 43°
2026-05-09 16:57 50.80548 5.34561 16915 ft 384 kts 43°
2026-05-09 16:58 50.82472 5.37458 16511 ft 380 kts 43°
2026-05-09 16:58 50.84376 5.40326 16103 ft 376 kts 42°
2026-05-09 16:58 50.86255 5.43163 15706 ft 373 kts 42°
2026-05-09 16:58 50.88126 5.45990 15300 ft 370 kts 42°
2026-05-09 16:59 50.89979 5.48793 14901 ft 367 kts 42°
2026-05-09 16:59 50.91820 5.51580 14513 ft 365 kts 42°
2026-05-09 16:59 50.93646 5.54350 14125 ft 362 kts 42°
2026-05-09 16:59 50.95461 5.57105 13718 ft 360 kts 42°
2026-05-09 17:00 50.97264 5.59846 13283 ft 358 kts 42°
2026-05-09 17:00 50.99054 5.62568 12885 ft 354 kts 42°
2026-05-09 17:00 51.00823 5.65262 12495 ft 351 kts 42°
2026-05-09 17:00 51.01985 5.67034 12254 ft 349 kts 42°
2026-05-09 17:01 51.04309 5.70580 11742 ft 345 kts 42°
2026-05-09 17:01 51.06032 5.73214 11367 ft 342 kts 42°
2026-05-09 17:01 51.07743 5.75831 10991 ft 340 kts 42°
2026-05-09 17:01 51.09439 5.78430 10675 ft 336 kts 42°
2026-05-09 17:02 51.11095 5.80967 10521 ft 326 kts 42°
2026-05-09 17:02 51.12191 5.82649 10430 ft 320 kts 42°
2026-05-09 17:02 51.13749 5.85041 10294 ft 311 kts 42°
2026-05-09 17:02 51.15284 5.87401 10150 ft 302 kts 42°
2026-05-09 17:03 51.16783 5.89705 9912 ft 298 kts 42°
2026-05-09 17:04 51.27019 6.05524 7660 ft 288 kts 44°
2026-05-09 17:05 51.28451 6.07745 7363 ft 286 kts 44°
2026-05-09 17:05 51.29873 6.09950 7059 ft 284 kts 44°
2026-05-09 17:05 51.31285 6.12146 6774 ft 282 kts 44°
2026-05-09 17:05 51.32688 6.14327 6482 ft 280 kts 44°
2026-05-09 17:06 51.34082 6.16496 6160 ft 279 kts 44°
2026-05-09 17:06 51.35468 6.18655 5870 ft 277 kts 44°
2026-05-09 17:06 51.36844 6.20800 5573 ft 275 kts 44°
2026-05-09 17:06 51.38211 6.22931 5291 ft 273 kts 44°
2026-05-09 17:07 51.39565 6.25047 5006 ft 271 kts 44°
2026-05-09 17:07 51.40465 6.26452 4816 ft 266 kts 45°
2026-05-09 17:07 51.42179 6.29134 4472 ft 251 kts 45°
2026-05-09 17:07 51.43388 6.31028 4357 ft 235 kts 45°
2026-05-09 17:08 51.44536 6.32826 4255 ft 226 kts 45°
2026-05-09 17:08 51.47182 6.35192 3996 ft 221 kts 13°
2026-05-09 17:08 51.48674 6.35767 3906 ft 220 kts 13°
2026-05-09 17:09 51.50139 6.36321 3838 ft 212 kts 13°
2026-05-09 17:09 51.51552 6.36846 3712 ft 205 kts 13°
2026-05-09 17:09 51.52914 6.37371 3568 ft 198 kts 19°
2026-05-09 17:09 51.54142 6.38333 3439 ft 196 kts 32°
2026-05-09 17:10 51.55291 6.39490 3332 ft 194 kts 33°
2026-05-09 17:10 51.56428 6.40654 3219 ft 194 kts 33°
2026-05-09 17:10 51.57574 6.41788 3106 ft 193 kts 25°
2026-05-09 17:10 51.58860 6.42080 2967 ft 184 kts 349°
2026-05-09 17:11 51.59939 6.41152 2837 ft 174 kts 312°
2026-05-09 17:11 51.60406 6.39451 2708 ft 171 kts 274°
2026-05-09 17:11 51.60152 6.37576 2605 ft 172 kts 250°
2026-05-09 17:11 51.59860 6.35730 2438 ft 172 kts 264°
2026-05-09 17:12 51.59806 6.33787 2238 ft 172 kts 273°
2026-05-09 17:12 51.59849 6.31872 2028 ft 171 kts 274°
2026-05-09 17:12 51.59895 6.29956 1807 ft 172 kts 274°
2026-05-09 17:12 51.59937 6.28067 1584 ft 170 kts 273°
2026-05-09 17:13 51.59980 6.26167 1395 ft 162 kts 273°
2026-05-09 17:13 51.60016 6.24432 1186 ft 151 kts 274°
2026-05-09 17:13 51.60054 6.22793 971 ft 147 kts 274°
2026-05-09 17:13 51.60091 6.21159 776 ft 147 kts 273°
2026-05-09 17:14 51.60123 6.19506 587 ft 148 kts 273°
2026-05-09 17:14 51.60158 6.17870 388 ft 145 kts 274°
2026-05-09 17:14 51.60199 6.16247 189 ft 145 kts 274°
2026-05-09 17:14 51.60235 6.14732 113 ft 107 kts 271°
2026-05-09 17:15 51.60253 6.13914 120 ft 56 kts 271°
2026-05-09 17:15 51.60266 6.13299 117 ft 41 kts 271°
2026-05-09 17:15 51.60272 6.13024 113 ft 11 kts 272°
2026-05-09 17:15 51.60242 6.12958 113 ft 9 kts 191°
2026-05-09 17:16 51.60161 6.12953 109 ft 14 kts 181°
2026-05-09 17:17 51.60064 6.13805 114 ft 20 kts 92°
2026-05-09 17:18 51.60058 6.14039 115 ft 23 kts 92°
2026-05-09 17:18 51.60052 6.14311 114 ft 20 kts 92°
2026-05-09 17:18 51.60048 6.14488 113 ft 10 kts 92°
2026-05-09 17:18 51.60042 6.14572 111 ft 5 kts 123°
2026-05-09 17:19 51.60022 6.14583 111 ft 3 kts 171°
2026-05-09 17:19 51.60002 6.14607 111 ft 4 kts 117°
2026-05-09 17:19 51.60000 6.14639 112 ft 1 kts 90°
2026-05-09 17:19 51.59999 6.14655 112 ft 2 kts 91°
2026-05-09 17:20 51.59999 6.14658 112 ft 0 kts 92°